Tracking 31027 objects as of 19-Jul-2025
HD Live streaming from Space Station
objects crossing your sky now

COSMOS 648

Track COSMOS 648 now!
10-day predictions
COSMOS 648 is classified as:


NORAD ID: 7272
Int'l Code: 1974-024H
Perigee: 1,444.4 km
Apogee: 1,495.8 km
Inclination: 74.0 °
Period: 115.2 minutes
Semi major axis: 7841 km
RCS: 0.7136 m2 (medium)
Launch date: April 23, 1974
Source: Commonwealth of Independent States (former USSR) (CIS)
Launch site: PLESETSK MISSILE AND SPACE COMPLEX (PKMTR)
Your satellite tracking list
RESURS O1 DEB
Track 1 satellite(s)




NASA's NSSDC Master Catalog

Two Line Element Set (TLE):
1 07272U 74024H   25199.50637405 -.00000004  00000-0  74399-4 0  9992
2 07272  74.0188  15.9077 0032810 108.0762 266.8266 12.50370231338694
Source of the keplerian elements: AFSPC